Regional Weather Roundup
Issued by NWS

Home | Current Version | Previous Version | Text Only | Print | Product List | Glossary On
Versions: 1 2 3 4 5 6 7 8 9 10 11 12 13 14 15 16 17 18 19 20 21 22 23 24 25 26 27 28 29 30 31 32 33 34 35 36 37 38 39 40 41 42 43 44 45 46 47 48 49 50
000
ASUS44 KOUN 222110
RWROK

WEATHER ROUNDUP FOR OKLAHOMA
NATIONAL WEATHER SERVICE NORMAN OK
300 PM CST WED NOV 22 2017

NOTE: "FAIR" INDICATES FEW OR NO CLOUDS BELOW 12,000 FEET WITH NO
      SIGNIFICANT WEATHER AND/OR OBSTRUCTIONS TO VISIBILITY.

OKZ001>007-009>012-014-015-017-222200-
NORTHWEST OKLAHOMA AND THE PANHANDLE

CITY           SKY/WX    TMP DP  RH WIND       PRES   REMARKS
GAGE           SUNNY     59  26  28 S16       30.22F
GUYMON         CLOUDY    67  33  28 VRB6      30.18S
ENID/WOODRING  MOSUNNY   50  21  32 CALM      30.28F
$$

OKZ016-021>023-033>039-044-045-222200-
SOUTHWEST OKLAHOMA

CITY           SKY/WX    TMP DP  RH WIND       PRES   REMARKS
LAWTON/REGL    SUNNY     53  13  20 CALM      30.31F
LAWTON/FT SILL SUNNY     54  16  22 N5        30.29F
FREDERICK      SUNNY     54  11  18 W5        30.28F
CLINTON        SUNNY     52  17  25 SW7       30.29F
HOBART         SUNNY     53  16  23 SE3       30.30F
ALTUS AFB      SUNNY     54  10  17 SE3       30.30F
$$

OKZ018>020-024>031-222200-
CENTRAL OKLAHOMA

CITY           SKY/WX    TMP DP  RH WIND       PRES   REMARKS
OKLAHOMA CITY  MOSUNNY   48  15  26 VRB3      30.30F
OKC/WILEY POST SUNNY     49  15  25 CALM      30.31F
OKC/TINKER AFB SUNNY     48  16  28 NW5       30.29F
STILLWATER     SUNNY     48  16  27 CALM      30.31F
GUTHRIE        SUNNY     46  17  31 CALM      30.31F
$$

OKZ008-013-054>072-222200-
NORTHEAST OKLAHOMA

CITY           SKY/WX    TMP DP  RH WIND       PRES   REMARKS
TULSA          MOSUNNY   47  19  33 CALM      30.32F
TULSA/JONES    SUNNY     48  18  30 N3        30.32F
PONCA CITY     SUNNY     45  17  32 SW3       30.30F
BARTLESVILLE   SUNNY     47  17  30 CALM      30.33F
MUSKOGEE       SUNNY     50  20  30 VRB7      30.32F
$$

OKZ032-040>043-046>053-073>077-222200-
SOUTH CENTRAL/SOUTHEAST OKLAHOMA

CITY           SKY/WX    TMP DP  RH WIND       PRES   REMARKS
ARDMORE/DWNTWN SUNNY     50  18  27 N5        30.31F
MCALESTER      PTSUNNY   52  22  30 N6        30.31F
$$




USA.gov is the U.S. government's official web portal to all federal, state and local government web resources and services.